Hourly Weather Canberra

Today, 15 July, Wednesday

Time Temperature Precipitation Wind Pressure Humidity
00:00 +4°C° 0 mm 2 mps 712 mmHg 90%
01:00 +4°C° 0 mm 2 mps 712 mmHg 91%
02:00 +4°C° 0 mm 2 mps 712 mmHg 91%
03:00 +4°C° 0 mm 2 mps 712 mmHg 92%
04:00 +4°C° 0 mm 2 mps 711 mmHg 91%
05:00 +4°C° 0 mm 2 mps 711 mmHg 89%
06:00 +4°C° 0 mm 2 mps 711 mmHg 87%
07:00 +4°C° 0 mm 2 mps 712 mmHg 85%
08:00 +5°C° 0 mm 2 mps 712 mmHg 79%
09:00 +7°C° 0 mm 3 mps 712 mmHg 72%
10:00 +8°C° 0 mm 4 mps 712 mmHg 66%
11:00 +8°C° 0 mm 4 mps 711 mmHg 64%
12:00 +10°C° 0 mm 4 mps 711 mmHg 62%
13:00 +11°C° 0 mm 4 mps 710 mmHg 60%
14:00 +10°C° 0 mm 4 mps 710 mmHg 62%
15:00 +10°C° 0 mm 4 mps 710 mmHg 63%
16:00 +9°C° 0 mm 3 mps 710 mmHg 64%
17:00 +8°C° 0 mm 3 mps 710 mmHg 68%
18:00 +7°C° 0 mm 2 mps 711 mmHg 72%
19:00 +6°C° 0 mm 2 mps 711 mmHg 76%
20:00 +5°C° 0 mm 2 mps 711 mmHg 81%
21:00 +4°C° 0 mm 2 mps 711 mmHg 86%
22:00 +3°C° 0 mm 2 mps 711 mmHg 91%
23:00 +4°C° 0 mm 1 mps 710 mmHg 91%

Tomorrow, 16 July, Thursday

Time Temperature Precipitation Wind Pressure Humidity
00:00 +4°C° 0 mm 1 mps 710 mmHg 91%
01:00 +3°C° 0 mm 1 mps 710 mmHg 92%
02:00 +3°C° 0 mm 1 mps 710 mmHg 92%
03:00 +3°C° 0 mm 1 mps 710 mmHg 92%
04:00 +3°C° 0 mm 1 mps 710 mmHg 92%
05:00 +3°C° 0 mm 1 mps 710 mmHg 92%
06:00 +3°C° 0 mm 1 mps 710 mmHg 92%
07:00 +2°C° 0 mm 1 mps 710 mmHg 93%
08:00 +4°C° 0 mm 2 mps 711 mmHg 84%
09:00 +6°C° 0 mm 2 mps 711 mmHg 74%
10:00 +8°C° 0 mm 2 mps 711 mmHg 65%
11:00 +9°C° 0 mm 3 mps 711 mmHg 63%
12:00 +10°C° 0 mm 3 mps 710 mmHg 61%
13:00 +11°C° 0 mm 3 mps 710 mmHg 59%
14:00 +10°C° 0 mm 3 mps 710 mmHg 61%
15:00 +10°C° 0 mm 3 mps 710 mmHg 63%
16:00 +9°C° 0 mm 3 mps 710 mmHg 65%
17:00 +8°C° 0 mm 3 mps 710 mmHg 71%
18:00 +6°C° 0 mm 2 mps 710 mmHg 77%
19:00 +5°C° 0 mm 2 mps 711 mmHg 83%
20:00 +4°C° 0 mm 2 mps 711 mmHg 85%
21:00 +4°C° 0 mm 2 mps 711 mmHg 88%
22:00 +3°C° 0 mm 2 mps 711 mmHg 91%
23:00 +3°C° 0 mm 2 mps 711 mmHg 91%

Day after tomorrow, 17 July, Friday

Time Temperature Precipitation Wind Pressure Humidity
00:00 +3°C° 0 mm 2 mps 711 mmHg 92%
01:00 +2°C° 0 mm 2 mps 711 mmHg 93%
02:00 +2°C° 0 mm 2 mps 711 mmHg 93%
03:00 +2°C° 0 mm 2 mps 711 mmHg 94%
04:00 +2°C° 0 mm 2 mps 711 mmHg 94%
05:00 +1°C° 0 mm 2 mps 712 mmHg 93%
06:00 +1°C° 0 mm 2 mps 712 mmHg 93%
07:00 +1°C° 0 mm 2 mps 712 mmHg 93%
08:00 +4°C° 0 mm 2 mps 712 mmHg 84%
09:00 +6°C° 0 mm 2 mps 713 mmHg 76%
10:00 +8°C° 0 mm 2 mps 713 mmHg 67%
11:00 +10°C° 0 mm 2 mps 713 mmHg 63%
12:00 +12°C° 0 mm 1 mps 712 mmHg 59%
13:00 +14°C° 0 mm 1 mps 712 mmHg 55%
14:00 +14°C° 0 mm 1 mps 712 mmHg 59%
15:00 +13°C° 0 mm 1 mps 712 mmHg 63%
16:00 +13°C° 0 mm 1 mps 712 mmHg 67%
17:00 +11°C° 0 mm 1 mps 712 mmHg 74%
18:00 +8°C° 0 mm 0 mps 712 mmHg 81%
19:00 +6°C° 0 mm 0 mps 713 mmHg 89%
20:00 +5°C° 0 mm 0 mps 713 mmHg 90%
21:00 +6°C° 0 mm 1 mps 712 mmHg 92%
22:00 +5°C° 0 mm 1 mps 712 mmHg 93%
23:00 +4°C° 0 mm 0 mps 712 mmHg 94%

18 July, Saturday

Time Temperature Precipitation Wind Pressure Humidity
00:00 +3°C° 0 mm 0 mps 712 mmHg 95%
01:00 +3°C° 0 mm 0 mps 712 mmHg 96%
02:00 +3°C° 0 mm 0 mps 712 mmHg 96%
03:00 +2°C° 0 mm 0 mps 711 mmHg 96%
04:00 +2°C° 0 mm 0 mps 711 mmHg 96%
05:00 +2°C° 0 mm 0 mps 711 mmHg 96%
06:00 +2°C° 0 mm 0 mps 711 mmHg 96%
07:00 +1°C° 0 mm 0 mps 711 mmHg 96%
08:00 +4°C° 0 mm 0 mps 711 mmHg 90%
09:00 +7°C° 0 mm 1 mps 711 mmHg 83%
10:00 +10°C° 0 mm 1 mps 711 mmHg 76%
11:00 +11°C° 0 mm 1 mps 711 mmHg 71%
12:00 +12°C° 0 mm 2 mps 710 mmHg 65%
13:00 +13°C° 0 mm 2 mps 710 mmHg 59%
14:00 +12°C° 0 mm 3 mps 709 mmHg 63%
15:00 +11°C° 0 mm 3 mps 709 mmHg 67%
16:00 +11°C° 0 mm 3 mps 709 mmHg 72%
17:00 +9°C° 0 mm 3 mps 709 mmHg 78%
18:00 +8°C° 0 mm 2 mps 709 mmHg 85%
19:00 +6°C° 0 mm 2 mps 709 mmHg 92%
20:00 +6°C° 0 mm 2 mps 709 mmHg 92%
21:00 +6°C° 0 mm 2 mps 709 mmHg 92%
22:00 +6°C° 0 mm 2 mps 709 mmHg 93%
23:00 +6°C° 0 mm 2 mps 708 mmHg 91%

19 July, Sunday

Time Temperature Precipitation Wind Pressure Humidity
00:00 +6°C° 0 mm 2 mps 708 mmHg 90%
01:00 +6°C° 0 mm 2 mps 708 mmHg 89%
02:00 +5°C° 0 mm 3 mps 707 mmHg 89%
03:00 +5°C° 0 mm 3 mps 707 mmHg 90%
04:00 +5°C° 0 mm 3 mps 707 mmHg 91%
05:00 +5°C° 0 mm 3 mps 707 mmHg 92%
06:00 +4°C° 0 mm 3 mps 707 mmHg 94%
07:00 +4°C° 0 mm 3 mps 707 mmHg 95%
08:00 +5°C° 0 mm 4 mps 707 mmHg 87%
09:00 +6°C° 0 mm 4 mps 707 mmHg 79%
10:00 +8°C° 0 mm 5 mps 707 mmHg 71%
11:00 +9°C° 0 mm 6 mps 707 mmHg 65%
12:00 +10°C° 0 mm 6 mps 706 mmHg 60%
13:00 +11°C° 0 mm 7 mps 706 mmHg 54%
14:00 +10°C° 0 mm 7 mps 706 mmHg 58%
15:00 +10°C° 0 mm 6 mps 706 mmHg 63%
16:00 +9°C° 0 mm 6 mps 706 mmHg 67%
17:00 +8°C° 0 mm 5 mps 706 mmHg 74%
18:00 +6°C° 0 mm 4 mps 707 mmHg 81%
19:00 +4°C° 0 mm 3 mps 707 mmHg 88%
20:00 +4°C° 0 mm 3 mps 707 mmHg 89%
21:00 +5°C° 0 mm 3 mps 708 mmHg 89%
22:00 +5°C° 0 mm 3 mps 708 mmHg 90%
23:00 +4°C° 0 mm 3 mps 708 mmHg 91%

20 July, Monday

Time Temperature Precipitation Wind Pressure Humidity
00:00 +4°C° 0 mm 3 mps 708 mmHg 93%
01:00 +3°C° 0 mm 3 mps 708 mmHg 95%
02:00 +4°C° 0 mm 2 mps 708 mmHg 95%
03:00 +3°C° 0 mm 2 mps 708 mmHg 96%
04:00 +3°C° 0 mm 2 mps 708 mmHg 96%
05:00 +2°C° 0 mm 2 mps 709 mmHg 96%
06:00 +2°C° 0 mm 2 mps 710 mmHg 96%
07:00 +1°C° 0 mm 2 mps 710 mmHg 96%
08:00 +3°C° 0 mm 2 mps 711 mmHg 87%
09:00 +5°C° 0 mm 2 mps 712 mmHg 78%
10:00 +8°C° 0 mm 1 mps 712 mmHg 69%
11:00 +8°C° 0 mm 2 mps 712 mmHg 63%
12:00 +9°C° 0 mm 2 mps 712 mmHg 58%
13:00 +10°C° 0 mm 2 mps 712 mmHg 52%
14:00 +10°C° 0 mm 2 mps 712 mmHg 55%
15:00 +10°C° 0 mm 2 mps 712 mmHg 58%
16:00 +9°C° 0 mm 3 mps 712 mmHg 62%
17:00 +7°C° 0 mm 2 mps 712 mmHg 71%
18:00 +6°C° 0 mm 1 mps 713 mmHg 81%
19:00 +4°C° 0 mm 1 mps 713 mmHg 90%
20:00 +4°C° 0 mm 1 mps 714 mmHg 90%
21:00 +3°C° 0 mm 1 mps 714 mmHg 90%
22:00 +2°C° 0 mm 0 mps 714 mmHg 90%
23:00 +1°C° 0 mm 0 mps 714 mmHg 90%
Show more